This is the latest recevied weather packets stored in our database for station/object DG9BJA-13. If no packets are shown the sender has not sent any weather packets the latest 10 day(s).
| Time | Temp. | Humidity | Pressure | Rain* | Wind** | Luminosity | Snow |
|---|---|---|---|---|---|---|---|
| 1777796176 | 19.44° C | 76% | 1011.6 hPa | 0 mm | - | 478 W/m² | - |
| 1777795576 | 20° C | 75% | 1011.5 hPa | 0 mm | - | 448 W/m² | - |
| 1777794976 | 20° C | 76% | 1011.6 hPa | 0 mm | - | 501 W/m² | - |
| 1777794376 | 20° C | 75% | 1011.6 hPa | 0 mm | - | 520 W/m² | - |
| 1777793776 | 19.44° C | 77% | 1011.6 hPa | 0 mm | - | 506 W/m² | - |
| 1777793176 | 18.89° C | 81% | 1011.6 hPa | 0 mm | - | 497 W/m² | - |
| 1777792575 | 18.33° C | 85% | 1011.6 hPa | 0 mm | - | 434 W/m² | - |
| 1777791975 | 17.22° C | 87% | 1011.5 hPa | 0 mm | - | 385 W/m² | - |
| 1777791376 | 16.11° C | 89% | 1011.5 hPa | 0 mm | - | 323 W/m² | - |
| 1777790776 | 15.56° C | 90% | 1011.5 hPa | 0 mm | - | 149 W/m² | - |
| 1777790175 | 15.56° C | 91% | 1011.5 hPa | 0 mm | - | 125 W/m² | - |
| 1777789575 | 15.56° C | 91% | 1011.5 hPa | 0 mm | - | 109 W/m² | - |
| 1777788975 | 15° C | 92% | 1011.5 hPa | 0 mm | - | 107 W/m² | - |
| 1777788375 | 15° C | 92% | 1011.6 hPa | 0 mm | - | 120 W/m² | - |
| 1777787777 | 15° C | 93% | 1011.5 hPa | 0 mm | - | 97 W/m² | - |
| 1777787177 | 14.44° C | 93% | 1011.5 hPa | 0 mm | - | 69 W/m² | - |
| 1777786577 | 14.44° C | 93% | 1011.5 hPa | 0 mm | - | 65 W/m² | - |
| 1777785977 | 14.44° C | 94% | 1011.5 hPa | 0 mm | - | 65 W/m² | - |
| 1777785377 | 14.44° C | 94% | 1011.5 hPa | 0 mm | - | 46 W/m² | - |
| 1777784777 | 14.44° C | 94% | 1011.5 hPa | 0 mm | - | 44 W/m² | - |
| 1777784177 | 13.89° C | 94% | 1011.6 hPa | 0 mm | - | 56 W/m² | - |
| 1777783577 | 13.89° C | 95% | 1011.6 hPa | 0 mm | - | 42 W/m² | - |
| 1777782977 | 13.89° C | 95% | 1011.8 hPa | 0 mm | - | 42 W/m² | - |
| 1777782377 | 13.33° C | 95% | 1012.1 hPa | 0 mm | - | 33 W/m² | - |
| 1777781777 | 13.33° C | 95% | 1012.1 hPa | 0 mm | - | 18 W/m² | - |
* Rain latest hour (hover to see other rain measurements)
** Current wind speed in m/s (hover to see current wind gust speed)